Tracking 30970 objects as of 3-Jul-2025
HD Live streaming from Space Station
objects crossing your sky now

COSMOS 2251 DEB

Track COSMOS 2251 DEB now!
10-day predictions


NORAD ID: 39111
Int'l Code: 1993-036BUA
Perigee: 580.0 km
Apogee: 603.4 km
Inclination: 74.0 °
Period: 96.4 minutes
Semi major axis: 6962 km
RCS: 0.003 m2 (small)
Launch date: June 16, 1993
Source: Commonwealth of Independent States (former USSR) (CIS)
Launch site: PLESETSK MISSILE AND SPACE COMPLEX (PKMTR)

Note: This is SATELLITE DEBRIS
Your satellite tracking list
Your tracking list is empty




NASA's NSSDC Master Catalog

Two Line Element Set (TLE):
1 39111U 93036BUA 25183.26495936  .00021330  00000-0  19773-2 0  9997
2 39111  74.0149  14.8430 0016843 117.2903 242.9998 14.94297494 66915
Source of the keplerian elements: AFSPC